This is the latest recevied weather packets stored in our database for station/object F4GCF-13. If no packets are shown the sender has not sent any weather packets the latest 10 day(s).
| Time | Temp. | Humidity | Pressure | Rain* | Wind** | Luminosity | Snow |
|---|---|---|---|---|---|---|---|
| 1777749158 | 15° C | 90% | 1016 hPa | 0 mm | - | - | - |
| 1777747960 | 15° C | 86% | 1016 hPa | 0 mm | - | - | - |
| 1777747656 | 15° C | 87% | 1016 hPa | 0 mm | - | - | - |
| 1777747392 | 15° C | 87% | 1016 hPa | 1.27 mm | - | - | - |
| 1777747356 | 15° C | 87% | 1016 hPa | 1.27 mm | - | - | - |
| 1777747058 | 15° C | 86% | 1016 hPa | 2.29 mm | - | - | - |
| 1777746759 | 15° C | 86% | 1016 hPa | 2.29 mm | - | - | - |
| 1777746159 | 15° C | 86% | 1016 hPa | 4.32 mm | - | - | - |
| 1777745307 | 15.56° C | 84% | 1017 hPa | 4.32 mm | - | - | - |
| 1777745257 | 15.56° C | 84% | 1017 hPa | 4.32 mm | - | - | - |
| 1777744057 | 15.56° C | 80% | 1017 hPa | 6.35 mm | - | - | - |
| 1777743757 | 15.56° C | 80% | 1017 hPa | 5.08 mm | - | - | - |
| 1777743458 | 15.56° C | 79% | 1017 hPa | 4.06 mm | - | - | - |
| 1777743158 | 16.11° C | 79% | 1017 hPa | 4.06 mm | - | - | - |
| 1777742860 | 16.11° C | 77% | 1017 hPa | 3.05 mm | - | - | - |
| 1777742559 | 16.11° C | 75% | 1016 hPa | 2.03 mm | - | - | - |
| 1777741705 | 16.67° C | 72% | 1016 hPa | 2.03 mm | - | - | - |
| 1777741659 | 16.67° C | 72% | 1016 hPa | 2.03 mm | - | - | - |
| 1777741358 | 17.22° C | 70% | 1016 hPa | 1.02 mm | - | - | - |
| 1777741058 | 17.78° C | 68% | 1016 hPa | 1.02 mm | - | - | - |
| 1777740757 | 18.33° C | 66% | 1016 hPa | 0 mm | - | - | - |
| 1777740460 | 18.89° C | 64% | 1016 hPa | 0 mm | - | - | - |
| 1777740157 | 19.44° C | 63% | 1016 hPa | 0 mm | - | - | - |
| 1777739896 | 20.56° C | 60% | 1016 hPa | 0 mm | - | - | - |
| 1777739858 | 20.56° C | 60% | 1016 hPa | 0 mm | - | - | - |
* Rain latest hour (hover to see other rain measurements)
** Current wind speed in m/s (hover to see current wind gust speed)